Location: Ballingbuur
(53.0000°N, 5.7667°E)
Time: 05:40:23
(UTC+00:00)

USA 307 - Pass Details

Date: 29 November 2020
Orbit: 563 x 583 km, 54.0° (Epoch: 22 January)

Event Time Altitude Azimuth Distance (km) Brightness Sun altitude
Exits shadow 05:07:17 51° 289° (WNW) 739 3.0 -19.7°
Maximum altitude 05:08:19 80° 5° (N) 598 2.9 -19.6°
Drops below altitude 10° 05:12:41 10° 94° (E) 1,906 6.8 -18.9°
Sets 05:14:57 0° 96° (E) 2,806 8.1 -18.6°
